Time,TemperatureF,DewpointF,PressureIn,WindDirection,WindDirectionDegrees,WindSpeedMPH,WindSpeedGustMPH,Humidity,HourlyPrecipIn,Conditions,Clouds,dailyrainin,SolarRadiationWatts/m^2,SoftwareType,DateUTC
2013-11-12 00:02:00,40.0,22.0,-100.00,ENE,68,3.0,8.0,48,0.00,,,-99.99,0.000000,,2013-11-12 07:02:00,
2013-11-12 00:11:00,40.0,22.0,-100.00,ENE,68,3.0,8.0,48,0.00,,,-99.99,0.000000,,2013-11-12 07:11:00,
2013-11-12 00:42:00,40.0,21.0,-100.00,ENE,77,3.0,7.0,47,0.00,,,0.00,0.000000,,2013-11-12 07:42:00,
2013-11-12 00:52:00,40.0,21.0,-100.00,ENE,77,3.0,7.0,47,0.00,,,0.00,0.000000,,2013-11-12 07:52:00,
2013-11-12 01:02:00,40.0,21.0,-100.00,ENE,77,3.0,7.0,47,0.00,,,0.00,0.000000,,2013-11-12 08:02:00,
2013-11-12 01:11:00,40.0,21.0,-100.00,ENE,77,3.0,7.0,47,0.00,,,0.00,0.000000,,2013-11-12 08:11:00,
2013-11-12 01:42:00,40.0,22.0,-100.00,ENE,70,4.0,11.0,48,0.00,,,0.00,0.000000,,2013-11-12 08:42:00,
2013-11-12 01:52:00,40.0,22.0,-100.00,ENE,70,4.0,11.0,48,0.00,,,0.00,0.000000,,2013-11-12 08:52:00,
2013-11-12 02:02:00,40.0,22.0,-100.00,ENE,70,4.0,11.0,48,0.00,,,0.00,0.000000,,2013-11-12 09:02:00,
2013-11-12 02:11:00,40.0,22.0,-100.00,ENE,70,4.0,11.0,48,0.00,,,0.00,0.000000,,2013-11-12 09:11:00,
2013-11-12 02:42:00,41.0,20.0,-100.00,East,98,3.0,9.0,42,0.00,,,0.00,0.000000,,2013-11-12 09:42:00,
2013-11-12 02:53:00,41.0,20.0,-100.00,East,98,3.0,9.0,42,0.00,,,0.00,0.000000,,2013-11-12 09:53:00,
2013-11-12 03:03:00,41.0,20.0,-100.00,East,98,3.0,9.0,42,0.00,,,0.00,0.000000,,2013-11-12 10:03:00,
2013-11-12 03:12:00,41.0,20.0,-100.00,East,98,3.0,9.0,42,0.00,,,0.00,0.000000,,2013-11-12 10:12:00,
2013-11-12 03:42:00,40.0,21.0,-100.00,East,82,4.0,7.0,46,-99.99,,,-99.99,0.000000,,2013-11-12 10:42:00,
2013-11-12 03:53:00,40.0,21.0,-100.00,East,82,4.0,7.0,46,-99.99,,,-99.99,0.000000,,2013-11-12 10:53:00,
2013-11-12 04:02:00,40.0,21.0,-100.00,East,82,4.0,7.0,46,-99.99,,,-99.99,0.000000,,2013-11-12 11:02:00,
2013-11-12 05:42:00,42.0,18.0,-100.00,ENE,60,4.0,6.0,37,-99.99,,,0.00,0.000000,,2013-11-12 12:42:00,
2013-11-12 05:52:00,42.0,18.0,-100.00,ENE,60,4.0,6.0,37,-99.99,,,0.00,0.000000,,2013-11-12 12:52:00,
2013-11-12 06:01:00,42.0,18.0,-100.00,ENE,60,4.0,6.0,37,-99.99,,,0.00,0.000000,,2013-11-12 13:01:00,
2013-11-12 06:11:00,42.0,18.0,-100.00,ENE,60,4.0,6.0,37,-99.99,,,0.00,0.000000,,2013-11-12 13:11:00,
2013-11-12 06:42:00,42.0,21.0,-100.00,ENE,67,4.0,9.0,42,-99.99,,,0.00,0.000000,,2013-11-12 13:42:00,
2013-11-12 06:52:00,42.0,21.0,-100.00,ENE,67,4.0,9.0,42,-99.99,,,0.00,0.000000,,2013-11-12 13:52:00,
2013-11-12 07:02:00,42.0,21.0,-100.00,ENE,67,4.0,9.0,42,-99.99,,,0.00,0.000000,,2013-11-12 14:02:00,
2013-11-12 07:11:00,42.0,21.0,-100.00,ENE,67,4.0,9.0,42,-99.99,,,0.00,0.000000,,2013-11-12 14:11:00,
2013-11-12 07:42:00,41.0,18.0,-100.00,East,82,4.0,8.0,39,-99.99,,,0.00,0.000000,,2013-11-12 14:42:00,
2013-11-12 07:52:00,41.0,18.0,-100.00,East,82,4.0,8.0,39,-99.99,,,0.00,0.000000,,2013-11-12 14:52:00,
2013-11-12 08:02:00,41.0,18.0,-100.00,East,82,4.0,8.0,39,-99.99,,,0.00,0.000000,,2013-11-12 15:02:00,
2013-11-12 08:11:00,41.0,18.0,-100.00,East,82,4.0,8.0,39,-99.99,,,0.00,0.000000,,2013-11-12 15:11:00,
2013-11-12 08:44:00,45.0,14.0,-100.00,NE,36,5.0,10.0,28,0.00,,,0.00,0.000000,,2013-11-12 15:44:00,
2013-11-12 08:53:00,45.0,14.0,-100.00,NE,36,5.0,10.0,28,0.00,,,0.00,0.000000,,2013-11-12 15:53:00,
2013-11-12 09:03:00,45.0,14.0,-100.00,NE,36,5.0,10.0,28,0.00,,,0.00,0.000000,,2013-11-12 16:03:00,
2013-11-12 09:42:00,45.0,18.0,-100.00,ENE,68,6.0,14.0,34,0.00,,,0.00,19.000000,,2013-11-12 16:42:00,
2013-11-12 09:53:00,45.0,18.0,-100.00,ENE,68,6.0,14.0,34,0.00,,,0.00,19.000000,,2013-11-12 16:53:00,
2013-11-12 10:02:00,45.0,18.0,-100.00,ENE,68,6.0,14.0,34,0.00,,,0.00,19.000000,,2013-11-12 17:02:00,
2013-11-12 10:12:00,45.0,18.0,-100.00,ENE,68,6.0,14.0,34,0.00,,,0.00,19.000000,,2013-11-12 17:12:00,
2013-11-12 10:42:00,47.0,16.0,-100.00,East,91,3.0,9.0,29,0.00,,,0.00,56.000000,,2013-11-12 17:42:00,
2013-11-12 10:52:00,47.0,16.0,-100.00,East,91,3.0,9.0,29,0.00,,,0.00,56.000000,,2013-11-12 17:52:00,
2013-11-12 11:01:00,47.0,16.0,-100.00,East,91,3.0,9.0,29,0.00,,,0.00,56.000000,,2013-11-12 18:01:00,
2013-11-12 11:12:00,47.0,16.0,-100.00,East,91,3.0,9.0,29,0.00,,,0.00,56.000000,,2013-11-12 18:12:00,
2013-11-12 11:42:00,54.0,17.0,-100.00,South,174,5.0,9.0,23,0.00,,,0.00,368.000000,,2013-11-12 18:42:00,
2013-11-12 11:52:00,54.0,17.0,-100.00,South,174,5.0,9.0,23,0.00,,,0.00,368.000000,,2013-11-12 18:52:00,
2013-11-12 12:01:00,54.0,17.0,-100.00,South,174,5.0,9.0,23,0.00,,,0.00,368.000000,,2013-11-12 19:01:00,
2013-11-12 12:11:00,54.0,17.0,-100.00,South,174,5.0,9.0,23,0.00,,,0.00,368.000000,,2013-11-12 19:11:00,
2013-11-12 12:42:00,54.0,19.0,-100.00,South,177,5.0,11.0,25,-99.99,,,0.00,425.000000,,2013-11-12 19:42:00,
2013-11-12 12:52:00,54.0,19.0,-100.00,South,177,5.0,11.0,25,-99.99,,,0.00,425.000000,,2013-11-12 19:52:00,
2013-11-12 13:01:00,54.0,19.0,-100.00,South,177,5.0,11.0,25,-99.99,,,0.00,425.000000,,2013-11-12 20:01:00,
2013-11-12 13:11:00,54.0,19.0,-100.00,South,177,5.0,11.0,25,-99.99,,,0.00,425.000000,,2013-11-12 20:11:00,
2013-11-12 13:42:00,55.0,26.0,-100.00,WSW,242,2.0,10.0,32,0.00,,,0.00,469.000000,,2013-11-12 20:42:00,
2013-11-12 13:52:00,55.0,26.0,-100.00,WSW,242,2.0,10.0,32,0.00,,,0.00,469.000000,,2013-11-12 20:52:00,
2013-11-12 14:02:00,55.0,26.0,-100.00,WSW,242,2.0,10.0,32,0.00,,,0.00,469.000000,,2013-11-12 21:02:00,
2013-11-12 14:12:00,55.0,26.0,-100.00,WSW,242,2.0,10.0,32,0.00,,,0.00,469.000000,,2013-11-12 21:12:00,
2013-11-12 14:14:00,57.0,24.0,-100.00,WSW,247,3.0,5.0,28,0.00,,,0.00,440.000000,,2013-11-12 21:14:00,
2013-11-12 14:44:00,57.0,24.0,-100.00,WSW,247,3.0,5.0,28,0.00,,,0.00,440.000000,,2013-11-12 21:44:00,
2013-11-12 14:54:00,57.0,24.0,-100.00,WSW,247,3.0,5.0,28,0.00,,,0.00,440.000000,,2013-11-12 21:54:00,
2013-11-12 15:04:00,57.0,24.0,-100.00,WSW,247,3.0,5.0,28,0.00,,,0.00,440.000000,,2013-11-12 22:04:00,
2013-11-12 15:43:00,56.0,23.0,-100.00,West,260,3.0,6.0,28,0.00,,,0.00,443.000000,,2013-11-12 22:43:00,
2013-11-12 15:54:00,56.0,23.0,-100.00,West,260,3.0,6.0,28,0.00,,,0.00,443.000000,,2013-11-12 22:54:00,
2013-11-12 16:03:00,56.0,23.0,-100.00,West,260,3.0,6.0,28,0.00,,,0.00,443.000000,,2013-11-12 23:03:00,
2013-11-12 16:11:00,56.0,23.0,-100.00,West,260,3.0,6.0,28,0.00,,,0.00,443.000000,,2013-11-12 23:11:00,
2013-11-12 16:42:00,52.0,25.0,-100.00,WSW,248,3.0,5.0,34,0.00,,,0.00,250.000000,,2013-11-12 23:42:00,
2013-11-12 16:54:00,52.0,25.0,-100.00,WSW,248,3.0,5.0,34,0.00,,,0.00,250.000000,,2013-11-12 23:54:00,
2013-11-12 17:02:00,52.0,25.0,-100.00,WSW,248,3.0,5.0,34,0.00,,,0.00,250.000000,,2013-11-13 00:02:00,
2013-11-12 17:11:00,52.0,25.0,-100.00,WSW,248,3.0,5.0,34,0.00,,,0.00,250.000000,,2013-11-13 00:11:00,
2013-11-12 17:42:00,47.0,24.0,-100.00,West,260,2.0,5.0,40,0.00,,,0.00,82.000000,,2013-11-13 00:42:00,
2013-11-12 17:52:00,47.0,24.0,-100.00,West,260,2.0,5.0,40,0.00,,,0.00,82.000000,,2013-11-13 00:52:00,
2013-11-12 18:01:00,47.0,24.0,-100.00,West,260,2.0,5.0,40,0.00,,,0.00,82.000000,,2013-11-13 01:01:00,
2013-11-12 18:11:00,47.0,24.0,-100.00,West,260,2.0,5.0,40,0.00,,,0.00,82.000000,,2013-11-13 01:11:00,
2013-11-12 18:42:00,43.0,22.0,-100.00,West,265,2.0,3.0,43,0.00,,,0.00,13.000000,,2013-11-13 01:42:00,
2013-11-12 18:52:00,43.0,22.0,-100.00,West,265,2.0,3.0,43,0.00,,,0.00,13.000000,,2013-11-13 01:52:00,
2013-11-12 19:01:00,43.0,22.0,-100.00,West,265,2.0,3.0,43,0.00,,,0.00,13.000000,,2013-11-13 02:01:00,
2013-11-12 19:11:00,43.0,22.0,-100.00,West,265,2.0,3.0,43,0.00,,,0.00,13.000000,,2013-11-13 02:11:00,
2013-11-12 19:42:00,43.0,23.0,-100.00,West,276,2.0,4.0,44,0.00,,,0.00,0.000000,,2013-11-13 02:42:00,
2013-11-12 19:52:00,43.0,23.0,-100.00,West,276,2.0,4.0,44,0.00,,,0.00,0.000000,,2013-11-13 02:52:00,
2013-11-12 20:02:00,43.0,23.0,-100.00,West,276,2.0,4.0,44,0.00,,,0.00,0.000000,,2013-11-13 03:02:00,
2013-11-12 20:11:00,43.0,23.0,-100.00,West,276,2.0,4.0,44,0.00,,,0.00,0.000000,,2013-11-13 03:11:00,
2013-11-12 20:14:00,41.0,23.0,-100.00,WNW,283,2.0,3.0,48,0.00,,,0.00,0.000000,,2013-11-13 03:14:00,
2013-11-12 20:45:00,41.0,23.0,-100.00,WNW,283,2.0,3.0,48,0.00,,,0.00,0.000000,,2013-11-13 03:45:00,
2013-11-12 20:54:00,41.0,23.0,-100.00,WNW,283,2.0,3.0,48,0.00,,,0.00,0.000000,,2013-11-13 03:54:00,
2013-11-12 21:04:00,41.0,23.0,-100.00,WNW,283,2.0,3.0,48,0.00,,,0.00,0.000000,,2013-11-13 04:04:00,
2013-11-12 21:43:00,41.0,21.0,-100.00,WSW,252,2.0,3.0,45,0.00,,,0.00,0.000000,,2013-11-13 04:43:00,
2013-11-12 21:53:00,41.0,21.0,-100.00,WSW,252,2.0,3.0,45,0.00,,,0.00,0.000000,,2013-11-13 04:53:00,
2013-11-12 22:03:00,41.0,21.0,-100.00,WSW,252,2.0,3.0,45,0.00,,,0.00,0.000000,,2013-11-13 05:03:00,
2013-11-12 22:13:00,41.0,21.0,-100.00,WSW,252,2.0,3.0,45,0.00,,,0.00,0.000000,,2013-11-13 05:13:00,
2013-11-12 22:43:00,41.0,22.0,-100.00,West,259,2.0,3.0,47,0.00,,,0.00,0.000000,,2013-11-13 05:43:00,
2013-11-12 22:53:00,41.0,22.0,-100.00,West,259,2.0,3.0,47,0.00,,,0.00,0.000000,,2013-11-13 05:53:00,
2013-11-12 23:03:00,41.0,22.0,-100.00,West,259,2.0,3.0,47,0.00,,,0.00,0.000000,,2013-11-13 06:03:00,
2013-11-12 23:13:00,41.0,22.0,-100.00,West,259,2.0,3.0,47,0.00,,,0.00,0.000000,,2013-11-13 06:13:00,
2013-11-12 23:42:00,40.0,22.0,-100.00,WSW,253,2.0,4.0,48,0.00,,,0.00,0.000000,,2013-11-13 06:42:00,
2013-11-12 23:52:00,40.0,22.0,-100.00,WSW,253,2.0,4.0,48,0.00,,,0.00,0.000000,,2013-11-13 06:52:00,